• en France
  • Liste des pays
  • À 7 jours
  • Température de l'eau
  • Carte satellitaire
  • Carte météo
  • Widgets météo
  • user-avatar
    Se connecter

    Météo par heure à Korhogo

    Ce jour, 19 Août, Dimanche

    Heure Température Précipitation Vent Pression Humidité
    00:00 +24°C° 0 mm 2 m/s 726 mmHg 93%
    01:00 +24°C° 1,1 mm 2 m/s 726 mmHg 94%
    02:00 +24°C° 1,1 mm 2 m/s 726 mmHg 94%
    03:00 +23°C° 1,1 mm 2 m/s 725 mmHg 94%
    04:00 +23°C° 1,1 mm 2 m/s 725 mmHg 95%
    05:00 +23°C° 1,1 mm 2 m/s 726 mmHg 95%
    06:00 +23°C° 1,1 mm 2 m/s 726 mmHg 96%
    07:00 +24°C° 0,9 mm 2 m/s 726 mmHg 95%
    08:00 +24°C° 0,9 mm 2 m/s 727 mmHg 94%
    09:00 +25°C° 0,9 mm 3 m/s 727 mmHg 93%
    10:00 +24°C° 1,6 mm 3 m/s 727 mmHg 93%
    11:00 +24°C° 1,6 mm 3 m/s 727 mmHg 94%
    12:00 +24°C° 1,6 mm 3 m/s 727 mmHg 95%
    13:00 +24°C° 0,5 mm 3 m/s 726 mmHg 94%
    14:00 +24°C° 0,5 mm 3 m/s 726 mmHg 93%
    15:00 +24°C° 0,5 mm 3 m/s 725 mmHg 92%
    16:00 +24°C° 0,3 mm 3 m/s 725 mmHg 92%
    17:00 +24°C° 0,3 mm 3 m/s 725 mmHg 93%
    18:00 +24°C° 0,3 mm 2 m/s 725 mmHg 94%
    19:00 +24°C° 1,2 mm 3 m/s 726 mmHg 94%
    20:00 +24°C° 1,2 mm 3 m/s 727 mmHg 95%
    21:00 +24°C° 1,2 mm 3 m/s 727 mmHg 96%
    22:00 +22°C° 1,7 mm 3 m/s 727 mmHg 96%
    23:00 +22°C° 1,7 mm 3 m/s 728 mmHg 96%

    Demain, 20 Août, Lundi

    Heure Température Précipitation Vent Pression Humidité
    00:00 +22°C° 1,7 mm 3 m/s 728 mmHg 96%
    01:00 +22°C° 0,8 mm 3 m/s 727 mmHg 96%
    02:00 +23°C° 0,8 mm 2 m/s 727 mmHg 96%
    03:00 +23°C° 0,8 mm 2 m/s 727 mmHg 97%
    04:00 +23°C° 0,4 mm 2 m/s 727 mmHg 97%
    05:00 +23°C° 0,4 mm 2 m/s 727 mmHg 97%
    06:00 +21°C° 0,4 mm 2 m/s 727 mmHg 97%
    07:00 +23°C° 0,2 mm 2 m/s 727 mmHg 94%
    08:00 +24°C° 0,2 mm 3 m/s 728 mmHg 91%
    09:00 +25°C° 0,2 mm 3 m/s 728 mmHg 88%
    10:00 +26°C° 0 mm 3 m/s 728 mmHg 83%
    11:00 +27°C° 0 mm 3 m/s 728 mmHg 78%
    12:00 +28°C° 0 mm 3 m/s 728 mmHg 73%
    13:00 +29°C° 0 mm 4 m/s 727 mmHg 71%
    14:00 +29°C° 0 mm 4 m/s 726 mmHg 69%
    15:00 +30°C° 0 mm 4 m/s 726 mmHg 66%
    16:00 +29°C° 0,1 mm 3 m/s 725 mmHg 72%
    17:00 +28°C° 0,1 mm 2 m/s 725 mmHg 77%
    18:00 +27°C° 0,1 mm 2 m/s 725 mmHg 82%
    19:00 +26°C° 0 mm 2 m/s 726 mmHg 85%
    20:00 +25°C° 0 mm 2 m/s 727 mmHg 88%
    21:00 +24°C° 0 mm 1 m/s 727 mmHg 91%
    22:00 +24°C° 0 mm 2 m/s 727 mmHg 90%
    23:00 +24°C° 0 mm 2 m/s 728 mmHg 90%

    Après-demain, 21 Août, Mardi

    Heure Température Précipitation Vent Pression Humidité
    00:00 +24°C° 0 mm 2 m/s 728 mmHg 90%
    01:00 +23°C° 0,1 mm 2 m/s 728 mmHg 90%
    02:00 +23°C° 0,1 mm 2 m/s 727 mmHg 91%
    03:00 +23°C° 0,1 mm 2 m/s 727 mmHg 91%
    04:00 +21°C° 0 mm 2 m/s 727 mmHg 92%
    05:00 +22°C° 0 mm 1 m/s 727 mmHg 94%
    06:00 +22°C° 0 mm 1 m/s 727 mmHg 95%
    07:00 +23°C° 0 mm 2 m/s 727 mmHg 90%
    08:00 +25°C° 0 mm 2 m/s 728 mmHg 85%
    09:00 +26°C° 0 mm 2 m/s 728 mmHg 79%
    10:00 +27°C° 0 mm 2 m/s 728 mmHg 74%
    11:00 +29°C° 0 mm 3 m/s 728 mmHg 68%
    12:00 +30°C° 0 mm 3 m/s 728 mmHg 63%
    13:00 +30°C° 0,4 mm 2 m/s 727 mmHg 65%
    14:00 +30°C° 0,4 mm 2 m/s 726 mmHg 67%
    15:00 +30°C° 0,4 mm 2 m/s 726 mmHg 69%
    16:00 +29°C° 1,1 mm 2 m/s 726 mmHg 75%
    17:00 +28°C° 1,1 mm 1 m/s 725 mmHg 81%
    18:00 +27°C° 1,1 mm 1 m/s 725 mmHg 86%
    19:00 +26°C° 0,6 mm 1 m/s 726 mmHg 88%
    20:00 +25°C° 0,6 mm 1 m/s 727 mmHg 89%
    21:00 +25°C° 0,6 mm 1 m/s 727 mmHg 90%
    22:00 +24°C° 0 mm 1 m/s 727 mmHg 91%
    23:00 +24°C° 0 mm 1 m/s 727 mmHg 92%

    22 Août, Mercredi

    Heure Température Précipitation Vent Pression Humidité
    00:00 +24°C° 0 mm 1 m/s 727 mmHg 92%
    01:00 +24°C° 0 mm 1 m/s 727 mmHg 93%
    02:00 +23°C° 0 mm 1 m/s 726 mmHg 93%
    03:00 +23°C° 0 mm 1 m/s 726 mmHg 94%
    04:00 +23°C° 0 mm 1 m/s 726 mmHg 94%
    05:00 +23°C° 0 mm 1 m/s 726 mmHg 94%
    06:00 +22°C° 0 mm 1 m/s 726 mmHg 93%
    07:00 +23°C° 0 mm 1 m/s 727 mmHg 90%
    08:00 +24°C° 0 mm 1 m/s 728 mmHg 87%
    09:00 +25°C° 0 mm 1 m/s 729 mmHg 84%
    10:00 +27°C° 0 mm 2 m/s 728 mmHg 76%
    11:00 +29°C° 0 mm 2 m/s 728 mmHg 67%
    12:00 +30°C° 0 mm 2 m/s 728 mmHg 59%
    13:00 +31°C° 0 mm 2 m/s 727 mmHg 60%
    14:00 +31°C° 0 mm 2 m/s 727 mmHg 61%
    15:00 +31°C° 0 mm 2 m/s 726 mmHg 62%
    16:00 +30°C° 0,1 mm 2 m/s 726 mmHg 67%
    17:00 +29°C° 0,1 mm 1 m/s 725 mmHg 71%
    18:00 +29°C° 0,1 mm 1 m/s 725 mmHg 76%
    19:00 +27°C° 0,1 mm 1 m/s 726 mmHg 80%
    20:00 +26°C° 0,1 mm 1 m/s 726 mmHg 84%
    21:00 +25°C° 0,1 mm 1 m/s 727 mmHg 88%
    22:00 +25°C° 0,2 mm 1 m/s 727 mmHg 89%
    23:00 +24°C° 0,2 mm 1 m/s 727 mmHg 91%

    23 Août, Jeudi

    Heure Température Précipitation Vent Pression Humidité
    00:00 +24°C° 0,2 mm 1 m/s 727 mmHg 93%
    01:00 +24°C° 0,2 mm 1 m/s 726 mmHg 93%
    02:00 +24°C° 0,2 mm 1 m/s 726 mmHg 93%
    03:00 +23°C° 0,2 mm 1 m/s 725 mmHg 93%
    04:00 +23°C° 0,1 mm 1 m/s 726 mmHg 93%
    05:00 +23°C° 0,1 mm 1 m/s 726 mmHg 93%
    06:00 +23°C° 0,1 mm 1 m/s 726 mmHg 93%
    07:00 +24°C° 0,2 mm 1 m/s 727 mmHg 89%
    08:00 +25°C° 0,2 mm 2 m/s 727 mmHg 85%
    09:00 +27°C° 0,2 mm 2 m/s 728 mmHg 81%
    10:00 +28°C° 0,4 mm 2 m/s 728 mmHg 76%
    11:00 +29°C° 0,4 mm 2 m/s 727 mmHg 71%
    12:00 +30°C° 0,4 mm 2 m/s 727 mmHg 66%
    13:00 +30°C° 0,5 mm 2 m/s 726 mmHg 66%
    14:00 +31°C° 0,5 mm 2 m/s 726 mmHg 66%
    15:00 +31°C° 0,5 mm 2 m/s 725 mmHg 66%
    16:00 +30°C° 0,5 mm 2 m/s 725 mmHg 71%
    17:00 +29°C° 0,5 mm 1 m/s 725 mmHg 77%
    18:00 +28°C° 0,5 mm 1 m/s 725 mmHg 82%
    19:00 +27°C° 0 mm 1 m/s 725 mmHg 84%
    20:00 +26°C° 0 mm 1 m/s 726 mmHg 86%
    21:00 +25°C° 0 mm 1 m/s 726 mmHg 88%
    22:00 +25°C° 0,2 mm 1 m/s 726 mmHg 90%
    23:00 +24°C° 0,2 mm 1 m/s 726 mmHg 92%

    24 Août, Vendredi

    Heure Température Précipitation Vent Pression Humidité
    00:00 +24°C° 0,2 mm 2 m/s 726 mmHg 94%
    01:00 +24°C° 0,3 mm 2 m/s 726 mmHg 94%
    02:00 +23°C° 0,3 mm 2 m/s 725 mmHg 95%
    03:00 +23°C° 0,3 mm 1 m/s 725 mmHg 96%
    04:00 +23°C° 0 mm 1 m/s 725 mmHg 96%
    05:00 +23°C° 0 mm 2 m/s 725 mmHg 96%
    06:00 +23°C° 0 mm 2 m/s 726 mmHg 96%
    07:00 +24°C° 0 mm 2 m/s 726 mmHg 93%
    08:00 +25°C° 0 mm 2 m/s 726 mmHg 89%
    09:00 +26°C° 0 mm 3 m/s 727 mmHg 86%
    10:00 +27°C° 0,5 mm 2 m/s 726 mmHg 82%
    11:00 +28°C° 0,5 mm 2 m/s 726 mmHg 78%
    12:00 +29°C° 0,5 mm 2 m/s 726 mmHg 74%
    13:00 +29°C° 1,1 mm 2 m/s 725 mmHg 76%
    14:00 +28°C° 1,1 mm 2 m/s 724 mmHg 79%
    15:00 +28°C° 1,1 mm 2 m/s 724 mmHg 81%
    16:00 +27°C° 0,1 mm 1 m/s 724 mmHg 83%
    17:00 +27°C° 0,1 mm 1 m/s 724 mmHg 84%
    18:00 +24°C° 0,1 mm 0 m/s 723 mmHg 86%
    19:00 +24°C° 0 mm 0 m/s 724 mmHg 87%
    20:00 +25°C° 0 mm 1 m/s 724 mmHg 89%
    21:00 +25°C° 0 mm 1 m/s 725 mmHg 91%
    22:00 +24°C° 0,1 mm 1 m/s 725 mmHg 92%
    23:00 +24°C° 0,1 mm 1 m/s 725 mmHg 93%
    Voir plus